FW7968 Weather Reports


time (UTC)temp
C
wind
direction
speed
KPH
gust
KPH
rain 1hr
cm
rain 24hr
cm
rain mn
cm
humidity
%
barometer
mb
20260507004603 7 279 0.0 3.2 0.00 1.35 1.32 93 1011.9
20260507003117 7 46 0.0 0.0 0.00 1.35 1.32 94 1011.6
20260507001616 7 44 0.0 3.2 0.00 1.35 1.32 93 1011.3
20260507000002 7 78 0.0 3.2 0.00 1.35 1.32 92 1011.0
20260506234551 7 306 0.0 3.2 0.00 1.35 1.32 93 1011.1
20260506233043 7 53 0.0 3.2 0.00 1.35 1.32 94 1010.7
20260506231545 7 344 0.0 6.4 0.00 1.35 1.32 94 1010.7
20260506230055 7 257 0.0 0.0 0.00 1.35 1.32 95 1010.6
20260506224548 7 303 0.0 3.2 0.00 1.35 1.32 95 1010.7
20260506223048 7 305 0.0 6.4 0.00 1.35 1.32 95 1010.6
20260506221604 7 315 0.0 3.2 0.00 1.35 1.32 95 1010.4
20260506220048 7 185 0.0 6.4 0.00 1.37 1.32 96 1010.1
20260506214554 8 175 0.0 6.4 0.00 1.37 1.32 95 1010.0
20260506213050 8 288 1.6 6.4 0.00 1.37 1.32 95 1010.0
20260506211551 8 143 0.0 3.2 0.00 1.37 1.32 95 1009.7
20260506210057 8 88 0.0 3.2 0.00 1.40 1.32 95 1009.6
20260506204556 8 105 0.0 0.0 0.00 1.40 1.32 95 1009.6
20260506203119 8 209 1.6 8.0 0.00 1.40 1.32 95 1009.4
20260506201557 8 347 4.8 9.7 0.00 1.40 1.32 95 1009.1
20260506194605 8 244 0.0 4.8 0.00 1.42 1.32 96 1009.0
20260506193107 8 172 1.6 8.0 0.00 1.42 1.32 95 1008.9
20260506191602 8 110 0.0 6.4 0.00 1.42 1.32 96 1008.7
20260506190104 8 90 1.6 8.0 0.00 1.42 1.32 97 1008.4
20260506184503 8 82 0.0 3.2 0.00 1.50 1.32 97 1008.6
20260506183002 8 118 0.0 6.4 0.00 1.50 1.32 96 1008.3
20260506181502 8 96 1.6 9.7 0.00 1.50 1.32 98 1008.1
20260506180005 7 120 1.6 6.4 0.00 1.63 1.32 98 1008.4
20260506174505 7 92 0.0 3.2 0.03 1.63 1.32 98 1008.1
20260506173007 7 55 0.0 6.4 0.03 1.63 1.32 99 1007.9
20260506171507 7 103 0.0 3.2 0.08 1.63 1.32 99 1007.4
20260506170009 7 97 0.0 3.2 0.10 1.63 1.32 98 1007.5
20260506164530 7 67 0.0 6.4 0.10 1.60 1.30 99 1007.3
20260506163014 7 90 0.0 3.2 0.13 1.60 1.30 98 1007.3
20260506161512 7 78 0.0 1.6 0.13 1.55 1.24 98 1007.6
20260506160013 7 184 0.0 6.4 0.13 1.52 1.22 98 1007.2
20260506154513 7 90 0.0 6.4 0.18 1.50 1.19 97 1007.2
20260506153014 7 133 0.0 4.8 0.23 1.45 1.17 97 1006.7
20260506151516 7 136 0.0 1.6 0.18 1.42 1.12 96 1006.1
20260506150016 8 90 0.0 6.4 0.15 1.37 1.07 96 1006.1
20260506144524 8 65 0.0 1.6 0.10 1.32 1.02 94 1005.9
20260506143020 10 37 0.0 6.4 0.05 1.24 0.94 92 1005.9
20260506141528 12 347 1.6 8.0 0.05 1.24 0.94 94 1005.1